Location: Unspecified
(45.3712°N, 0.6436°E)
Time: 13:36:55
(UTC+01:00)

ISS - Visible Passes

Search period start: 18 December 2017 00:00
Search period end: 28 December 2017 00:00
Orbit: 402 x 406 km, 51.6° (Epoch: 18 December)

Date Brightness Start Highest point End Pass type
(mag) Time Alt. Az. Time Alt. Az. Time Alt. Az.
18 Dec -0.4 18:32:04 10° WSW 18:33:30 12° SW 18:34:56 10° SSW visible
25 Dec -0.5 07:35:51 10° SSE 07:37:38 14° SE 07:39:25 10° E visible
27 Dec -1.7 07:26:13 10° SSW 07:29:06 29° SE 07:32:01 10° ENE visible
